User: anonymous   Login
Location: Unspecified
(0.0000°N, 0.0000°E)
Time: 02:48:40
(UTC+00:00)
Language:

FO-29 - Orbit

View from above orbital plane
View from above orbital plane
View from above satellite
View from above satellite

Ground track
Ground track

The orbit data is extracted from the following two-line orbital elements,

1 24278U 96046B   17232.57030656 +.00000003 +00000-0 +37855-4 0  9990
2 24278 098.5535 107.2367 0350537 170.4141 190.3923 13.53077617037330
Epoch (UTC): 20 August 2017 13:41:14
Eccentricity: 0.0350537
inclination: 98.5535°
perigee height: 800 km
apogee height: 1322 km
right ascension of ascending node: 107.2367°
argument of perigee: 170.4141°
revolutions per day: 13.53077617
mean anomaly at epoch: 190.3923°
orbit number at epoch: 3733

The dashed part of the orbit path shows where the satellite is in the earth's shadow,  

DLR